shoulder
new_line
new_line
first
second
third
Al di la della Luna; Beyond the Moon; Astrophotography; Astrofotografia; Danilo Pivato
 
 
         
         
2008

Orbital Elements

Epoch 2008 Aug. 2.0 TT = JDT 2454680.5
T 2008 Aug. 14.95983 TT                                                          MPC
q   1.3535073              (2000.0)                      P                         Q
n   0.15079876     Peri.  178.12009     +0.73325600     +0.64356964
a   3.4957272      Node  138.93575      -0.62812237     +0.76470318
e   0.6128109      Incl.   19.51483         -0.26038036     -0.03235986
P   6.54
Return in the future: 2021            
 
         
         
2008.07.24
2008.07.25
2008.07.26
2008.07.31
2008.08.02
         
2008.08.03
2008.08.06
2008.08.27
         
       
       
         
         
         

 

       
 
Since: 01/01/2004
 
       
 
Since: 01/11/2010